User: anonymous   Login
Location: Bonny Doon Airfield
(37.0704°N, 122.1252°W)
Time: 21:08:49
(UTC-08:00)
Language:

AIST 2D - Orbit

View from above orbital plane
View from above orbital plane
View from above satellite
View from above satellite

Ground track
Ground track

The orbit data is extracted from the following two-line orbital elements,

1 41465U 16026B   17322.79030734  .00002780  00000-0  92245-4 0  9996
2 41465  97.2361 222.2448 0013185  35.4301  49.9806 15.31991043 87128
Epoch (UTC): 18 November 2017 18:58:02
Eccentricity: 0.0013185
inclination: 97.2361°
perigee height: 461 km
apogee height: 479 km
right ascension of ascending node: 222.2448°
argument of perigee: 35.4301°
revolutions per day: 15.31991043
mean anomaly at epoch: 49.9806°
orbit number at epoch: 8712

The dashed part of the orbit path shows where the satellite is in the earth's shadow,  

DLR